Simultaneous Nadir Overpasses (SNOs) Predictions

Prediction of SNOs between GOES-16 and FY3D Satellite Orbit:

Table of predicted SNOs for the next 14.0 days since TLE Epoch: 1/7/2023
Index Date Time (GOES-16) GOES-16 Lat,Lon FY3D Lat,Lon Distance(km) Time Diff (sec)
1 01/07/2023 06:43:27 -0.03, -75.19 -0.78, -71.81 384.57 80
2 01/08/2023 19:06:02 0.04, -75.20 -0.42, -77.26 234.92 80
3 01/09/2023 18:50:23 0.04, -75.20 0.59, -72.82 271.95 80
4 01/11/2023 07:12:48 -0.04, -75.22 0.64, -78.22 342.12 80
5 01/12/2023 06:51:49 -0.04, -75.23 -0.37, -73.78 165.01 80
6 01/13/2023 19:14:23 0.04, -75.24 -0.88, -79.21 453.35 80
7 01/14/2023 18:58:43 0.04, -75.26 0.14, -74.78 54.31 80
8 01/17/2023 07:02:49 -0.03, -75.30 0.07, -75.74 50.84 80
9 01/18/2023 06:41:50 -0.02, -75.31 -0.94, -71.31 456.82 80
10 01/19/2023 19:04:23 0.01, -75.32 -0.34, -76.73 160.95 80
11 01/20/2023 18:48:44 -0.01, -75.34 0.69, -72.29 347.15 80
